Погода в Мишкольце

Венгрия     48°06′12″N   20°47′28″E
темп.,
°C
ветер,
м/с
пор.,
м/с
влажн.,
%
обл.,
%
осадки,
мм/ч
давл.,
гПа
погр.,
м
8 мая, сб
сб823:00+9зсз71470100 0.0 1012440
02:00+5с11851 0.0 101613
05:00+3ссз22810 0.0 101814
08:00+8с12610 0.0 1020393
11:00+12юв13495 0.0 10211571
14:00+14ююв2443100 0.0 10202125
17:00+15юз253966 0.0 10192226
20:00+9з366216 0.0 102189
9 мая, вс
вс923:00+6сз22725 0.0 102314
02:00+5сз22695 0.0 102413
05:00+4ююз217498 0.0 102510
08:00+9ю22656 0.0 1025265
11:00+14ю45555 0.0 1025982
14:00+16ю555162 0.0 10241389
17:00+16ю45555 0.0 10221279
20:00+11ююв127912 0.0 102210
10 мая, пн
пн1023:00+9св11795 0.0 102210
02:00+7ссв22833 0.0 102213
05:00+6св22870 0.0 102213
08:00+11в22740 0.0 1022213
11:00+16юв35630 0.0 1021615
14:00+20ююв57540 0.0 10191236
17:00+20ю47655 0.0 10181174
20:00+15ююв22845 0.0 101812
11 мая, вт
вт1123:00+13ююз118719 0.0 101910
02:00+11зюз228558 0.0 101811
05:00+10з11805 0.0 101810
08:00+15ююз11690 0.0 1018206
11:00+19ююв22650 0.0 1017656
14:00+22ююв34600 0.0 10151065
17:00+22юв34600 0.0 10131145
20:00+17ююз11814 0.0 101211
12 мая, ср
ср1223:00+15с22860 0.0 101112
02:00+13с22911 0.0 101016
05:00+12с22935 0.0 100927
08:00+16св45810 0.0 1007329
11:00+19всв45700 0.0 1006630
14:00+22юв336077 0.2 10051267
17:00+16з2283100 1.3 100445
20:00+15з229373 1.8 100332